Year,Month,Day,Hour,Minute,Value (Times are PST for temperature in C)
2016,09,13,00,00,10.30
2016,09,13,00,01,10.30
2016,09,13,00,02,10.30
2016,09,13,00,03,10.30
2016,09,13,00,04,10.20
2016,09,13,00,05,10.20
2016,09,13,00,06,10.20
2016,09,13,00,07,10.20
2016,09,13,00,08,10.20
2016,09,13,00,09,10.20
2016,09,13,00,10,10.20
2016,09,13,00,11,10.20
2016,09,13,00,12,10.20
2016,09,13,00,13,10.20
2016,09,13,00,14,10.20
2016,09,13,00,15,10.30
2016,09,13,00,16,10.30
2016,09,13,00,17,10.30
2016,09,13,00,18,10.30
2016,09,13,00,19,10.30
2016,09,13,00,20,10.30
2016,09,13,00,21,10.30
2016,09,13,00,22,10.30
2016,09,13,00,23,10.30
2016,09,13,00,24,10.30
2016,09,13,00,25,10.30
2016,09,13,00,26,10.30
2016,09,13,00,27,10.30
2016,09,13,00,28,10.30
2016,09,13,00,29,10.30
2016,09,13,00,30,10.30
2016,09,13,00,31,10.30
2016,09,13,00,32,10.20
2016,09,13,00,33,10.20
2016,09,13,00,34,10.20
2016,09,13,00,35,10.20
2016,09,13,00,36,10.20
2016,09,13,00,37,10.10
2016,09,13,00,38,10.10
2016,09,13,00,39,10.10
2016,09,13,00,40,10.00
2016,09,13,00,41,10.00
2016,09,13,00,42,9.90
2016,09,13,00,43,9.90
2016,09,13,00,44,9.90
2016,09,13,00,45,9.80
2016,09,13,00,46,9.80
2016,09,13,00,47,9.80
2016,09,13,00,48,9.80
2016,09,13,00,49,9.80
2016,09,13,00,50,9.80
2016,09,13,00,51,9.70
2016,09,13,00,52,9.70
2016,09,13,00,53,9.70
2016,09,13,00,54,9.70
2016,09,13,00,55,9.70
2016,09,13,00,56,9.70
2016,09,13,00,57,9.60
2016,09,13,00,58,9.60
2016,09,13,00,59,9.60
2016,09,13,01,00,9.60
2016,09,13,01,01,9.60
2016,09,13,01,02,9.60
2016,09,13,01,03,9.60
2016,09,13,01,04,9.50
2016,09,13,01,05,9.50
2016,09,13,01,06,9.40
2016,09,13,01,07,9.40
2016,09,13,01,08,9.40
2016,09,13,01,09,9.30
2016,09,13,01,10,9.30
2016,09,13,01,11,9.30
2016,09,13,01,12,9.30
2016,09,13,01,13,9.30
2016,09,13,01,14,9.30
2016,09,13,01,15,9.30
2016,09,13,01,16,9.20
2016,09,13,01,17,9.20
2016,09,13,01,18,9.20
2016,09,13,01,19,9.10
2016,09,13,01,20,9.10
2016,09,13,01,21,9.10
2016,09,13,01,22,9.10
2016,09,13,01,23,9.10
2016,09,13,01,24,9.10
2016,09,13,01,25,9.00
2016,09,13,01,26,9.00
2016,09,13,01,27,9.00
2016,09,13,01,28,9.00
2016,09,13,01,29,9.00
2016,09,13,01,30,9.00
2016,09,13,01,31,9.00
2016,09,13,01,32,9.00
2016,09,13,01,33,9.00
2016,09,13,01,34,9.00
2016,09,13,01,35,9.00
2016,09,13,01,36,9.00
2016,09,13,01,37,8.90
2016,09,13,01,38,9.00
2016,09,13,01,39,8.90
2016,09,13,01,40,9.00
2016,09,13,01,41,9.00
2016,09,13,01,42,9.00
2016,09,13,01,43,9.00
2016,09,13,01,44,9.00
2016,09,13,01,45,9.00
2016,09,13,01,46,9.00
2016,09,13,01,47,9.00
2016,09,13,01,48,9.00
2016,09,13,01,49,9.00
2016,09,13,01,50,9.00
2016,09,13,01,51,8.90
2016,09,13,01,52,8.90
2016,09,13,01,53,8.90
2016,09,13,01,54,8.90
2016,09,13,01,55,8.90
2016,09,13,01,56,8.80
2016,09,13,01,57,8.80
2016,09,13,01,58,8.80
2016,09,13,01,59,8.80
2016,09,13,02,00,8.80
2016,09,13,02,01,8.80
2016,09,13,02,02,8.80
2016,09,13,02,03,8.80
2016,09,13,02,04,8.70
2016,09,13,02,05,8.70
2016,09,13,02,06,8.70
2016,09,13,02,07,8.70
2016,09,13,02,08,8.70
2016,09,13,02,09,8.70
2016,09,13,02,10,8.60
2016,09,13,02,11,8.60
2016,09,13,02,12,8.60
2016,09,13,02,13,8.60
2016,09,13,02,14,8.60
2016,09,13,02,15,8.50
2016,09,13,02,16,8.50
2016,09,13,02,17,8.50
2016,09,13,02,18,8.50
2016,09,13,02,19,8.50
2016,09,13,02,20,8.50
2016,09,13,02,21,8.50
2016,09,13,02,22,8.50
2016,09,13,02,23,8.50
2016,09,13,02,24,8.50
2016,09,13,02,25,8.40
2016,09,13,02,26,8.40
2016,09,13,02,27,8.40
2016,09,13,02,28,8.40
2016,09,13,02,29,8.40
2016,09,13,02,30,8.40
2016,09,13,02,31,8.40
2016,09,13,02,32,8.40
2016,09,13,02,33,8.40
2016,09,13,02,34,8.40
2016,09,13,02,35,8.40
2016,09,13,02,36,8.40
2016,09,13,02,37,8.40
2016,09,13,02,38,8.40
2016,09,13,02,39,8.40
2016,09,13,02,40,8.40
2016,09,13,02,41,8.40
2016,09,13,02,42,8.40
2016,09,13,02,43,8.40
2016,09,13,02,44,8.40
2016,09,13,02,45,8.40
2016,09,13,02,46,8.40
2016,09,13,02,47,8.40
2016,09,13,02,48,8.40
2016,09,13,02,49,8.40
2016,09,13,02,50,8.40
2016,09,13,02,51,8.40
2016,09,13,02,52,8.40
2016,09,13,02,53,8.40
2016,09,13,02,54,8.40
2016,09,13,02,55,8.40
2016,09,13,02,56,8.40
2016,09,13,02,57,8.40
2016,09,13,02,58,8.30
2016,09,13,02,59,8.30
2016,09,13,03,00,8.30
2016,09,13,03,01,8.30
2016,09,13,03,02,8.30
2016,09,13,03,03,8.30
2016,09,13,03,04,8.30
2016,09,13,03,05,8.30
2016,09,13,03,06,8.30
2016,09,13,03,07,8.20
2016,09,13,03,08,8.20
2016,09,13,03,09,8.20
2016,09,13,03,10,8.20
2016,09,13,03,11,8.20
2016,09,13,03,12,8.20
2016,09,13,03,13,8.20
2016,09,13,03,14,8.20
2016,09,13,03,15,8.10
2016,09,13,03,16,8.10
2016,09,13,03,17,8.10
2016,09,13,03,18,8.10
2016,09,13,03,19,8.00
2016,09,13,03,20,8.00
2016,09,13,03,21,8.00
2016,09,13,03,22,8.00
2016,09,13,03,23,7.90
2016,09,13,03,24,7.90
2016,09,13,03,25,7.90
2016,09,13,03,26,7.90
2016,09,13,03,27,7.80
2016,09,13,03,28,7.80
2016,09,13,03,29,7.80
2016,09,13,03,30,7.80
2016,09,13,03,31,7.80
2016,09,13,03,32,7.80
2016,09,13,03,33,7.80
2016,09,13,03,34,7.80
2016,09,13,03,35,7.80
2016,09,13,03,36,7.80
2016,09,13,03,37,7.80
2016,09,13,03,38,7.80
2016,09,13,03,39,7.80
2016,09,13,03,40,7.80
2016,09,13,03,41,7.90
2016,09,13,03,42,7.90
2016,09,13,03,43,7.90
2016,09,13,03,44,7.90
2016,09,13,03,45,7.90
2016,09,13,03,46,7.90
2016,09,13,03,47,7.90
2016,09,13,03,48,7.90
2016,09,13,03,49,7.90
2016,09,13,03,50,7.90
2016,09,13,03,51,7.90
2016,09,13,03,52,7.90
2016,09,13,03,53,7.90
2016,09,13,03,54,7.90
2016,09,13,03,55,7.90
2016,09,13,03,56,7.90
2016,09,13,03,57,7.90
2016,09,13,03,58,7.80
2016,09,13,03,59,7.80
2016,09,13,04,00,7.80
2016,09,13,04,01,7.80
2016,09,13,04,02,7.80
2016,09,13,04,03,7.80
2016,09,13,04,04,7.80
2016,09,13,04,05,7.80
2016,09,13,04,06,7.80
2016,09,13,04,07,7.80
2016,09,13,04,08,7.80
2016,09,13,04,09,7.80
2016,09,13,04,10,7.80
2016,09,13,04,11,7.80
2016,09,13,04,12,7.80
2016,09,13,04,13,7.80
2016,09,13,04,14,7.80
2016,09,13,04,15,7.80
2016,09,13,04,16,7.70
2016,09,13,04,17,7.70
2016,09,13,04,18,7.70
2016,09,13,04,19,7.70
2016,09,13,04,20,7.60
2016,09,13,04,21,7.60
2016,09,13,04,22,7.60
2016,09,13,04,23,7.60
2016,09,13,04,24,7.60
2016,09,13,04,25,7.60
2016,09,13,04,26,7.60
2016,09,13,04,27,7.60
2016,09,13,04,28,7.60
2016,09,13,04,29,7.70
2016,09,13,04,30,7.70
2016,09,13,04,31,7.70
2016,09,13,04,32,7.70
2016,09,13,04,33,7.70
2016,09,13,04,34,7.70
2016,09,13,04,35,7.70
2016,09,13,04,36,7.70
2016,09,13,04,37,7.80
2016,09,13,04,38,7.90
2016,09,13,04,39,7.90
2016,09,13,04,40,8.00
2016,09,13,04,41,8.10
2016,09,13,04,42,8.10
2016,09,13,04,43,8.20
2016,09,13,04,44,8.20
2016,09,13,04,45,8.30
2016,09,13,04,46,8.30
2016,09,13,04,47,8.30
2016,09,13,04,48,8.30
2016,09,13,04,49,8.30
2016,09,13,04,50,8.20
2016,09,13,04,51,8.20
2016,09,13,04,52,8.20
2016,09,13,04,53,8.20
2016,09,13,04,54,8.10
2016,09,13,04,55,8.10
2016,09,13,04,56,8.10
2016,09,13,04,57,8.10
2016,09,13,04,58,8.10
2016,09,13,04,59,8.10
2016,09,13,05,00,8.10
2016,09,13,05,01,8.10
2016,09,13,05,02,8.10
2016,09,13,05,03,8.10
2016,09,13,05,04,8.20
2016,09,13,05,05,8.20
2016,09,13,05,06,8.30
2016,09,13,05,07,8.30
2016,09,13,05,08,8.40
2016,09,13,05,09,8.40
2016,09,13,05,10,8.40
2016,09,13,05,11,8.50
2016,09,13,05,12,8.60
2016,09,13,05,13,8.60
2016,09,13,05,14,8.70
2016,09,13,05,15,8.80
2016,09,13,05,16,8.90
2016,09,13,05,17,9.00
2016,09,13,05,18,9.20
2016,09,13,05,19,9.20
2016,09,13,05,20,9.30
2016,09,13,05,21,9.40
2016,09,13,05,22,9.40
2016,09,13,05,23,9.50
2016,09,13,05,24,9.60
2016,09,13,05,25,9.60
2016,09,13,05,26,9.60
2016,09,13,05,27,9.70
2016,09,13,05,28,9.70
2016,09,13,05,29,9.70
2016,09,13,05,30,9.70
2016,09,13,05,31,9.70
2016,09,13,05,32,9.70
2016,09,13,05,33,9.80
2016,09,13,05,34,9.90
2016,09,13,05,35,9.90
2016,09,13,05,36,10.00
2016,09,13,05,37,10.10
2016,09,13,05,38,10.20
2016,09,13,05,39,10.30
2016,09,13,05,40,10.50
2016,09,13,05,41,10.60
2016,09,13,05,42,10.70
2016,09,13,05,43,10.80
2016,09,13,05,44,11.00
2016,09,13,05,45,11.10
2016,09,13,05,46,11.20
2016,09,13,05,47,11.40
2016,09,13,05,48,11.50
2016,09,13,05,49,11.60
2016,09,13,05,50,11.70
2016,09,13,05,51,11.80
2016,09,13,05,52,11.90
2016,09,13,05,53,12.00
2016,09,13,05,54,12.10
2016,09,13,05,55,12.20
2016,09,13,05,56,12.30
2016,09,13,05,57,12.40
2016,09,13,05,58,12.40
2016,09,13,05,59,12.50
2016,09,13,06,00,12.50
2016,09,13,06,01,12.60
2016,09,13,06,02,12.60
2016,09,13,06,03,12.60
2016,09,13,06,04,12.60
2016,09,13,06,05,12.60
2016,09,13,06,06,12.60
2016,09,13,06,07,12.60
2016,09,13,06,08,12.60
2016,09,13,06,09,12.50
2016,09,13,06,10,12.50
2016,09,13,06,11,12.50
2016,09,13,06,12,12.40
2016,09,13,06,13,12.40
2016,09,13,06,14,12.40
2016,09,13,06,15,12.40
2016,09,13,06,16,12.40
2016,09,13,06,17,12.40
2016,09,13,06,18,12.40
2016,09,13,06,19,12.40
2016,09,13,06,20,12.40
2016,09,13,06,21,12.50
2016,09,13,06,22,12.50
2016,09,13,06,23,12.50
2016,09,13,06,24,12.50
2016,09,13,06,25,12.50
2016,09,13,06,26,12.50
2016,09,13,06,27,12.50
2016,09,13,06,28,12.50
2016,09,13,06,29,12.40
2016,09,13,06,30,12.40
2016,09,13,06,31,12.40
2016,09,13,06,32,12.40
2016,09,13,06,33,12.40
2016,09,13,06,34,12.40
2016,09,13,06,35,12.40
2016,09,13,06,36,12.40
2016,09,13,06,37,12.40
2016,09,13,06,38,12.40
2016,09,13,06,39,12.40
2016,09,13,06,40,12.40
2016,09,13,06,41,12.40
2016,09,13,06,42,12.40
2016,09,13,06,43,12.40
2016,09,13,06,44,12.40
2016,09,13,06,45,12.40
2016,09,13,06,46,12.40
2016,09,13,06,47,12.40
2016,09,13,06,48,12.40
2016,09,13,06,49,12.50
2016,09,13,06,50,12.50
2016,09,13,06,51,12.50
2016,09,13,06,52,12.60
2016,09,13,06,53,12.60
2016,09,13,06,54,12.60
2016,09,13,06,55,12.70
2016,09,13,06,56,12.70
2016,09,13,06,57,12.80
2016,09,13,06,58,12.90
2016,09,13,06,59,12.90
2016,09,13,07,00,12.90
2016,09,13,07,01,12.90
2016,09,13,07,02,12.90
2016,09,13,07,03,12.80
2016,09,13,07,04,12.70
2016,09,13,07,05,12.50
2016,09,13,07,06,12.30
2016,09,13,07,07,12.10
2016,09,13,07,08,11.90
2016,09,13,07,09,11.80
2016,09,13,07,10,11.60
2016,09,13,07,11,11.60
2016,09,13,07,12,11.50
2016,09,13,07,13,11.50
2016,09,13,07,14,11.40
2016,09,13,07,15,11.40
2016,09,13,07,16,11.30
2016,09,13,07,17,11.20
2016,09,13,07,18,11.20
2016,09,13,07,19,11.20
2016,09,13,07,20,11.20
2016,09,13,07,21,11.20
2016,09,13,07,22,11.20
2016,09,13,07,23,11.20
2016,09,13,07,24,11.20
2016,09,13,07,25,11.30
2016,09,13,07,26,11.30
2016,09,13,07,27,11.40
2016,09,13,07,28,11.40
2016,09,13,07,29,11.40
2016,09,13,07,30,11.40
2016,09,13,07,31,11.50
2016,09,13,07,32,11.50
2016,09,13,07,33,11.60
2016,09,13,07,34,11.70
2016,09,13,07,35,11.80
2016,09,13,07,36,11.80
2016,09,13,07,37,11.90
2016,09,13,07,38,11.90
2016,09,13,07,39,11.90
2016,09,13,07,40,11.90
2016,09,13,07,41,11.90
2016,09,13,07,42,11.90
2016,09,13,07,43,11.80
2016,09,13,07,44,11.80
2016,09,13,07,45,11.80
2016,09,13,07,46,11.80
2016,09,13,07,47,11.80
2016,09,13,07,48,11.80
2016,09,13,07,49,11.80
2016,09,13,07,50,11.80
2016,09,13,07,51,11.80
2016,09,13,07,52,11.80
2016,09,13,07,53,11.90
2016,09,13,07,54,11.90
2016,09,13,07,55,12.00
2016,09,13,07,56,12.10
2016,09,13,07,57,12.20
2016,09,13,07,58,12.20
2016,09,13,07,59,12.30
2016,09,13,08,00,12.30
2016,09,13,08,01,12.40
2016,09,13,08,02,12.40
2016,09,13,08,03,12.50
2016,09,13,08,04,12.60
2016,09,13,08,05,12.60
2016,09,13,08,06,12.60
2016,09,13,08,07,12.60
2016,09,13,08,08,12.60
2016,09,13,08,09,12.60
2016,09,13,08,10,12.60
2016,09,13,08,11,12.60
2016,09,13,08,12,12.60
2016,09,13,08,13,12.60
2016,09,13,08,14,12.70
2016,09,13,08,15,12.70
2016,09,13,08,16,12.70
2016,09,13,08,17,12.70
2016,09,13,08,18,12.70
2016,09,13,08,19,12.70
2016,09,13,08,20,12.80
2016,09,13,08,21,12.90
2016,09,13,08,22,12.90
2016,09,13,08,23,13.00
2016,09,13,08,24,13.10
2016,09,13,08,25,13.10
2016,09,13,08,26,13.20
2016,09,13,08,27,13.30
2016,09,13,08,28,13.30
2016,09,13,08,29,13.40
2016,09,13,08,30,13.50
2016,09,13,08,31,13.50
2016,09,13,08,32,13.60
2016,09,13,08,33,13.70
2016,09,13,08,34,13.80
2016,09,13,08,35,13.80
2016,09,13,08,36,14.00
2016,09,13,08,37,14.10
2016,09,13,08,38,14.30
2016,09,13,08,39,14.30
2016,09,13,08,40,14.50
2016,09,13,08,41,14.70
2016,09,13,08,42,14.90
2016,09,13,08,43,15.10
2016,09,13,08,44,15.20
2016,09,13,08,45,15.50
2016,09,13,08,46,15.60
2016,09,13,08,47,15.80
2016,09,13,08,48,15.80
2016,09,13,08,49,16.00
2016,09,13,08,50,16.10
2016,09,13,08,51,16.10
2016,09,13,08,52,16.20
2016,09,13,08,53,16.30
2016,09,13,08,54,16.40
2016,09,13,08,55,16.40
2016,09,13,08,56,16.50
2016,09,13,08,57,16.50
2016,09,13,08,58,16.60
2016,09,13,08,59,16.70
2016,09,13,09,00,16.80
2016,09,13,09,01,16.80
2016,09,13,09,02,16.90
2016,09,13,09,03,16.90
2016,09,13,09,04,17.00
2016,09,13,09,05,17.10
2016,09,13,09,06,17.10
2016,09,13,09,07,17.20
2016,09,13,09,08,17.20
2016,09,13,09,09,17.30
2016,09,13,09,10,17.30
2016,09,13,09,11,17.30
2016,09,13,09,12,17.40
2016,09,13,09,13,17.40
2016,09,13,09,14,17.50
2016,09,13,09,15,17.50
2016,09,13,09,16,17.60
2016,09,13,09,17,17.60
2016,09,13,09,18,17.70
2016,09,13,09,19,17.70
2016,09,13,09,20,17.70
2016,09,13,09,21,17.80
2016,09,13,09,22,17.80
2016,09,13,09,23,17.90
2016,09,13,09,24,17.90
2016,09,13,09,25,17.90
2016,09,13,09,26,17.80
2016,09,13,09,27,17.80
2016,09,13,09,28,17.80
2016,09,13,09,29,17.80
2016,09,13,09,30,17.70
2016,09,13,09,31,17.70
2016,09,13,09,32,17.70
2016,09,13,09,33,17.60
2016,09,13,09,34,17.60
2016,09,13,09,35,17.60
2016,09,13,09,36,17.60
2016,09,13,09,37,17.60
2016,09,13,09,38,17.60
2016,09,13,09,39,17.60
2016,09,13,09,40,17.70
2016,09,13,09,41,17.70
2016,09,13,09,42,17.70
2016,09,13,09,43,17.70
2016,09,13,09,44,17.70
2016,09,13,09,45,17.70
2016,09,13,09,46,17.70
2016,09,13,09,47,17.70
2016,09,13,09,48,17.70
2016,09,13,09,49,17.70
2016,09,13,09,50,17.70
2016,09,13,09,51,17.70
2016,09,13,09,52,17.70
2016,09,13,09,53,17.80
2016,09,13,09,54,17.80
2016,09,13,09,55,17.80
2016,09,13,09,56,17.80
2016,09,13,09,57,17.80
2016,09,13,09,58,17.80
2016,09,13,09,59,17.80
2016,09,13,10,00,17.70
2016,09,13,10,01,17.70
2016,09,13,10,02,17.70
2016,09,13,10,03,17.70
2016,09,13,10,04,17.80
2016,09,13,10,05,17.80
2016,09,13,10,06,17.80
2016,09,13,10,07,17.90
2016,09,13,10,08,17.90
2016,09,13,10,09,17.80
2016,09,13,10,10,17.90
2016,09,13,10,11,17.90
2016,09,13,10,12,17.90
2016,09,13,10,13,18.00
2016,09,13,10,14,18.10
2016,09,13,10,15,18.10
2016,09,13,10,16,18.20
2016,09,13,10,17,18.20
2016,09,13,10,18,18.20
2016,09,13,10,19,18.40
2016,09,13,10,20,18.40
2016,09,13,10,21,18.40
2016,09,13,10,22,18.50
2016,09,13,10,23,18.50
2016,09,13,10,24,18.60
2016,09,13,10,25,18.60
2016,09,13,10,26,18.50
2016,09,13,10,27,18.40
2016,09,13,10,28,18.40
2016,09,13,10,29,18.40
2016,09,13,10,30,18.40
2016,09,13,10,31,18.50
2016,09,13,10,32,18.50
2016,09,13,10,33,18.60
2016,09,13,10,34,18.60
2016,09,13,10,35,18.60
2016,09,13,10,36,18.70
2016,09,13,10,37,18.70
2016,09,13,10,38,18.70
2016,09,13,10,39,18.70
2016,09,13,10,40,18.70
2016,09,13,10,41,18.70
2016,09,13,10,42,18.80
2016,09,13,10,43,18.80
2016,09,13,10,44,18.80
2016,09,13,10,45,18.80
2016,09,13,10,46,18.80
2016,09,13,10,47,18.80
2016,09,13,10,48,18.80
2016,09,13,10,49,18.80
2016,09,13,10,50,18.80
2016,09,13,10,51,18.80
2016,09,13,10,52,18.80
2016,09,13,10,53,18.80
2016,09,13,20,30,17.40
2016,09,13,20,31,17.40
2016,09,13,20,32,17.40
2016,09,13,20,33,17.40
2016,09,13,20,34,17.20
2016,09,13,20,35,17.20
2016,09,13,20,36,17.10
2016,09,13,20,37,17.10
2016,09,13,20,38,16.90
2016,09,13,20,39,16.90
2016,09,13,20,40,16.80
2016,09,13,20,41,16.70
2016,09,13,20,42,16.70
2016,09,13,20,43,16.60
2016,09,13,20,44,16.50
2016,09,13,20,45,16.50
2016,09,13,20,46,16.50
2016,09,13,20,47,16.40
2016,09,13,20,48,16.40
2016,09,13,20,49,16.40
2016,09,13,20,50,16.30
2016,09,13,20,51,16.30
2016,09,13,20,52,16.30
2016,09,13,20,53,16.30
2016,09,13,20,54,16.20
2016,09,13,20,55,16.20
2016,09,13,20,56,16.20
2016,09,13,20,57,16.10
2016,09,13,20,58,16.10
2016,09,13,20,59,16.10
2016,09,13,21,00,16.10
2016,09,13,21,01,16.00
2016,09,13,21,02,16.00
2016,09,13,21,03,15.90
2016,09,13,21,04,15.90
2016,09,13,21,05,15.90
2016,09,13,21,06,15.90
2016,09,13,21,07,15.80
2016,09,13,21,08,15.80
2016,09,13,21,09,15.80
2016,09,13,21,10,15.70
2016,09,13,21,11,15.70
2016,09,13,21,12,15.70
2016,09,13,21,13,15.60
2016,09,13,21,14,15.60
2016,09,13,21,15,15.60
2016,09,13,21,16,15.50
2016,09,13,21,17,15.50
2016,09,13,21,18,15.50
2016,09,13,21,19,15.50
2016,09,13,21,20,15.50
2016,09,13,21,21,15.50
2016,09,13,21,22,15.50
2016,09,13,21,23,15.50
2016,09,13,21,24,15.20
2016,09,13,21,25,15.00
2016,09,13,21,26,15.00
2016,09,13,21,27,14.90
2016,09,13,21,28,14.80
2016,09,13,21,29,14.80
2016,09,13,21,30,14.80
2016,09,13,21,31,14.70
2016,09,13,21,32,14.70
2016,09,13,21,33,14.70
2016,09,13,21,34,14.70
2016,09,13,21,35,14.70
2016,09,13,21,36,14.70
2016,09,13,21,37,14.70
2016,09,13,21,38,14.70
2016,09,13,21,39,14.70
2016,09,13,21,40,14.70
2016,09,13,21,41,14.70
